Miscellaneous Local Product
Issued by NWS Hastings, NE

Home | Current Version | Previous Version | Graphics & Text | Print | Product List | Glossary On
Versions: 1 2 3 4 5 6 7 8 9 10 11 12 13 14 15 16 17 18 19 20 21 22 23 24 25 26 27 28 29 30 31 32 33 34 35 36 37 38 39 40 41 42 43 44 45 46 47 48 49 50
000
AXUS43 KGID 031902
MISGRI

GID CWA HOURLY WEATHER ROUNDUP
NATIONAL WEATHER SERVICE HASTINGS NE
100 PM CST TUE MAR 03 2015

NOTE: "FAIR" INDICATES FEW OR NO CLOUDS BELOW 12,000 FEET WITH NO
SIGNIFICANT WEATHER AND/OR OBSTRUCTIONS TO VISIBILITY.

...SOUTH CENTRAL NEBRASKA...

CITY           SKY/WX    TMP DP  RH WIND       PRES   REMARKS
GRAND ISLAND   NOT AVBL
HASTINGS       NOT AVBL
KEARNEY        CLOUDY    30  12  47 N29G37    29.93R WCI  15
ORD            NOT AVBL
YORK           CLOUDY    32  16  51 N21G29    29.91R WCI  20
AURORA         CLOUDY    31  14  50 N26G33    29.93R WCI  17
LEXINGTON      SUNNY     32  12  44 N25G35    29.95R WCI  18
HOLDREGE       MOSUNNY   32  13  45 N22G32    29.92R WCI  19
HEBRON         CLOUDY    33  19  56 N22G29    29.90R WCI  20

...NEBRASKA PANHANDLE...

CITY           SKY/WX    TMP DP  RH WIND       PRES   REMARKS
CHADRON        LGT SNOW  19   9  65 NE6       30.04S WCI  11
ALLIANCE       NOT AVBL
SCOTTSBLUFF    LGT SNOW  21  12  68 VRB5      30.00S WCI  15
SIDNEY         NOT AVBL

...WESTERN AND NORTH CENTRAL NEBRASKA...

CITY           SKY/WX    TMP DP  RH WIND       PRES   REMARKS
VALENTINE      MOSUNNY   18   6  59 NW23G30   30.02R WCI   0
AINSWORTH      PTSUNNY   20   7  56 NW21G31   30.01R WCI   4
ONEILL         MOSUNNY   24  10  56 NW28G35   29.99R WCI   7
BROKEN BOW     NOT AVBL
NORTH PLATTE   NOT AVBL
MCCOOK         NOT AVBL

...EASTERN NEBRASKA...

CITY           SKY/WX    TMP DP  RH WIND       PRES   REMARKS
NORFOLK        CLOUDY    29  14  53 NW29G38   29.91R WCI  14
COLUMBUS       MOSUNNY   30  10  43 N28G36    29.90R WCI  16
ALBION         MOSUNNY   28  12  51 N26G37    29.92R WCI  13
OMAHA EPPLEY   NOT AVBL
OFFUTT AFB     CLOUDY    33  24  71 NW18G29   29.85R WCI  21
MILLARD        CLOUDY    32  23  70 NW14G23   29.87R WCI  22
LINCOLN        NOT AVBL
NEBRASKA CITY  CLOUDY    38  25  59 NW18G24   29.84R WCI  28
BEATRICE       CLOUDY    36  26  66 NW24      29.88R WCI  24
FALLS CITY     NOT AVBL

...NORTHERN KANSAS...

CITY           SKY/WX    TMP DP  RH WIND       PRES   REMARKS
GOODLAND       NOT AVBL
HILL CITY      NOT AVBL
NORTON         CLEAR     36  10  35 N20G28    29.91  WCI  25
PHILLIPSBURG   SUNNY     37  18  44 N17       29.95R WCI  28
SMITH CENTER   SUNNY     34  18  51 N22G28    29.93R WCI  22
BELOIT         MOSUNNY   41  25  52 N18G28    29.89R
HAYS           CLOUDY    41  23  48 N22G33    29.90R
RUSSELL        NOT AVBL
CONCORDIA      NOT AVBL



USA.gov is the U.S. government's official web portal to all federal, state and local government web resources and services.